Tracking 19562 objects as of 23-Mar-2019
HD Live streaming from Space Station
objects crossing your sky now

STRV 1A

Track STRV 1A now!
10-day predictions
STRV 1A is classified as:


NORAD ID: 23125
Int'l Code: 1994-034B
Perigee: 263.0 km
Apogee: 25,997.3 km
Inclination: 7.0 °
Period: 451.7 minutes
Semi major axis: 19501 km
RCS: 0.2699 m2 (medium)
Launch date: June 17, 1994
Source: United Kingdom (UK)
Launch site: FRENCH GUIANA (FRGUI)
aabbcc
Your satellite tracking list
Your tracking list is empty




NASA's NSSDC Master Catalog

Two Line Element Set (TLE):
1 23125U 94034B   19079.95608541 +.00000733 +00000-0 +15611-3 0  9997
2 23125 006.9997 161.8858 6598169 081.9471 342.7411 03.18795927247002
Source of the keplerian elements: AFSPC